Location: Oso Ridge
(35.0450°N, 108.0864°W)
Time: 13:40:45
(UTC-06:00)

Amateur Radio Satellites - All Passes

Search period start: 25 October 2014 13:10
Search period end: 26 October 2014 13:10
Location: Oso Ridge, 35.0450°N, 108.0864°W

Satellite Date Start Highest point End Downlink Frequencies (MHz)
Time Altitude Azimuth
Uribyol 2 25 Oct 13:21:12 13:23:55 15° 64° (ENE) 13:26:40 436.500 FM
ITAMSAT 1 25 Oct 13:27:07 13:30:06 16° 64° (ENE) 13:33:05 435.822 SSB
ISS 25 Oct 13:29:25 13:32:15 25° 326° (NW) 13:35:06 145.800 FM
Oscar 19 25 Oct 13:50:54 13:56:00 69° 75° (ENE) 14:01:08 437.125 CW, 437.150 USB
UOSAT-12 25 Oct 13:50:59 13:54:30 22° 110° (ESE) 13:58:05 437.025 FM, 437.400 FM
Gurwin Techsat 1B 25 Oct 13:51:34 13:54:07 14° 63° (ENE) 13:56:40 435.225 FM
Sapphire 25 Oct 13:55:25 14:00:53 85° 245° (WSW) 14:06:17 437.095 MHz 1200 baud AX-25 AFSK
TMSAT-1 25 Oct 14:02:44 14:04:55 13° 63° (ENE) 14:07:06 436.925 FM
AO-27 25 Oct 14:10:41 14:15:34 42° 71° (ENE) 14:20:28 436.795 MHz FM
SO-50 25 Oct 14:11:38 14:15:05 21° 310° (NW) 14:18:37 436.795 FM
PCSat 25 Oct 14:18:05 14:23:17 48° 249° (WSW) 14:28:26 145.825 MHz
JAS-1B 25 Oct 14:20:09 14:26:17 81° 256° (WSW) 14:31:58 435.800 - 435.900 CW/SSB
AO-7 25 Oct 14:25:53 14:27:31 11° 49° (NE) 14:29:09 29.400 - 29.500 MHz
AO-Echo 25 Oct 14:26:08 14:30:58 76° 76° (ENE) 14:36:00 ?
Oscar 16 25 Oct 14:37:10 14:41:59 40° 261° (W) 14:46:49 437.025 USB, Beacon 2401.1428
KITSAT 1 25 Oct 14:45:35 14:50:43 18° 319° (NW) 14:55:53 435.175 FM
Uribyol 2 25 Oct 14:57:40 15:02:49 62° 259° (WSW) 15:08:01 436.500 FM
ITAMSAT 1 25 Oct 15:03:57 15:09:03 58° 259° (W) 15:14:13 435.822 SSB
Gurwin Techsat 1B 25 Oct 15:28:11 15:33:27 67° 258° (WSW) 15:38:45 435.225 FM
UOSAT-12 25 Oct 15:30:10 15:34:24 35° 306° (NW) 15:38:43 437.025 FM, 437.400 FM
Oscar 19 25 Oct 15:34:13 15:35:45 11° 269° (W) 15:37:18 437.125 CW, 437.150 USB
TMSAT-1 25 Oct 15:38:53 15:44:09 73° 258° (WSW) 15:49:28 436.925 FM
AO-27 25 Oct 15:51:31 15:55:12 20° 266° (W) 15:58:55 436.795 MHz FM
AO-7 25 Oct 16:10:31 16:18:35 60° 68° (ENE) 16:26:40 29.400 - 29.500 MHz
Uosat F 25 Oct 16:12:16 16:16:41 32° 70° (ENE) 16:21:08 435.120 FM
JAS-2 25 Oct 16:53:35 16:58:11 23° 63° (ENE) 17:03:12 435.800 - 435.900 CW/SSB, 435.910 FM
Saudisat 1A 25 Oct 16:55:57 17:00:22 69° 60° (ENE) 17:04:46 436.775 MHz
Uosat F 25 Oct 17:51:24 17:55:26 24° 264° (W) 17:59:30 435.120 FM
OPAL 25 Oct 17:59:49 18:04:24 37° 100° (E) 18:08:57 ?
AO-7 25 Oct 18:05:07 18:11:42 26° 264° (W) 18:18:20 29.400 - 29.500 MHz
ISS 25 Oct 18:24:42 18:26:16 13° 26° (NNE) 18:27:50 145.800 FM
Hamsat 25 Oct 18:26:30 18:30:43 74° 259° (WSW) 18:34:54 145.90 MHz
JAS-2 25 Oct 18:37:09 18:42:44 48° 262° (W) 18:49:04 435.800 - 435.900 CW/SSB, 435.910 FM
SO-67 25 Oct 19:02:47 19:05:42 27° 73° (ENE) 19:08:39 435.3500 MHz FM
OPAL 25 Oct 19:39:19 19:43:01 21° 295° (WNW) 19:46:41 ?
STRAND 1 25 Oct 19:45:28 19:50:30 52° 100° (E) 19:55:29 ?
HO-68 25 Oct 19:48:20 19:52:37 17° 58° (ENE) 19:56:54 435.675 MHz FM
ISS 25 Oct 20:00:02 20:03:23 89° 43° (NE) 20:06:43 145.800 FM
SO-67 25 Oct 20:37:10 20:38:42 12° 267° (W) 20:40:14 435.3500 MHz FM
KITSAT 1 25 Oct 20:43:21 20:50:18 31° 50° (NE) 20:57:12 435.175 FM
SO-50 25 Oct 21:05:28 21:08:43 18° 48° (NE) 21:11:59 436.795 FM
RS-15 25 Oct 21:09:52 21:19:09 32° 105° (ESE) 21:28:15 29.354 - 29.394 USB, Beacon 29.352 USB
STRAND 1 25 Oct 21:26:04 21:29:12 17° 295° (WNW) 21:32:20 ?
HO-68 25 Oct 21:32:15 21:39:25 82° 255° (WSW) 21:46:38 435.675 MHz FM
ZACube-1 25 Oct 21:39:10 21:41:39 15° 67° (ENE) 21:44:08 437.345 MHz
UKube-1 25 Oct 21:40:34 21:44:36 39° 72° (ENE) 21:48:41 145.840 MHz, 145.915 MHz
Oscar 11 25 Oct 22:20:51 22:25:10 76° 258° (WSW) 22:29:30 145.825 FM, Beacon 2401.500 USB
FUNcube-1 25 Oct 22:21:32 22:25:51 43° 73° (ENE) 22:30:08 145.950 - 145.970 MHz USB
UOSAT-12 25 Oct 22:25:33 22:26:13 10° 43° (NE) 22:26:52 437.025 FM, 437.400 FM
KITSAT 1 25 Oct 22:38:12 22:46:04 58° 248° (WSW) 22:53:54 435.175 FM
SO-50 25 Oct 22:44:51 22:49:36 56° 244° (WSW) 22:54:22 436.795 FM
ZACube-1 25 Oct 23:13:12 23:17:38 47° 261° (W) 23:22:01 437.345 MHz
UKube-1 25 Oct 23:18:28 23:20:55 15° 266° (W) 23:23:23 145.840 MHz, 145.915 MHz
RS-15 25 Oct 23:19:52 23:30:43 62° 304° (NW) 23:41:33 29.354 - 29.394 USB, Beacon 29.352 USB
HO-68 25 Oct 23:26:14 23:27:58 11° 270° (W) 23:29:43 435.675 MHz FM
MaSat-1 25 Oct 23:44:52 23:49:05 83° 112° (ESE) 23:52:56 437.345 MHz
FUNcube-1 25 Oct 23:59:42 00:02:21 15° 267° (W) 00:05:00 145.950 - 145.970 MHz USB
UOSAT-12 26 Oct 00:02:23 00:07:06 82° 61° (ENE) 00:11:43 437.025 FM, 437.400 FM
RS-15 26 Oct 01:39:01 01:45:56 18° 332° (NNW) 01:52:55 29.354 - 29.394 USB, Beacon 29.352 USB
JAS-1B 26 Oct 02:05:44 02:12:08 36° 99° (E) 02:19:35 435.800 - 435.900 CW/SSB
Oscar 19 26 Oct 02:06:14 02:10:45 31° 97° (E) 02:15:15 437.125 CW, 437.150 USB
AO-27 26 Oct 02:27:51 02:31:38 20° 94° (E) 02:35:22 436.795 MHz FM
AO-Echo 26 Oct 02:36:49 02:41:37 34° 97° (E) 02:46:22 ?
Oscar 16 26 Oct 02:51:46 02:56:55 86° 284° (WNW) 03:02:02 437.025 USB, Beacon 2401.1428
Sapphire 26 Oct 02:52:24 02:56:13 20° 105° (ESE) 03:00:03 437.095 MHz 1200 baud AX-25 AFSK
PCSat 26 Oct 03:13:33 03:18:24 35° 109° (ESE) 03:23:17 145.825 MHz
Uribyol 2 26 Oct 03:13:45 03:18:55 62° 101° (ESE) 03:24:01 436.500 FM
ITAMSAT 1 26 Oct 03:20:06 03:25:18 67° 102° (ESE) 03:30:28 435.822 SSB
Oscar 19 26 Oct 03:45:45 03:49:56 26° 292° (WNW) 03:54:06 437.125 CW, 437.150 USB
Gurwin Techsat 1B 26 Oct 03:47:44 03:53:02 65° 101° (ESE) 03:58:17 435.225 FM
JAS-1B 26 Oct 03:56:19 04:02:38 40° 290° (WNW) 04:10:03 435.800 - 435.900 CW/SSB
TMSAT-1 26 Oct 03:58:07 04:03:21 59° 101° (E) 04:08:34 436.925 FM
RS-15 26 Oct 04:01:19 04:05:10 12° 10° (N) 04:09:03 29.354 - 29.394 USB, Beacon 29.352 USB
AO-27 26 Oct 04:06:21 04:11:15 42° 289° (WNW) 04:16:07 436.795 MHz FM
AO-Echo 26 Oct 04:15:49 04:20:10 26° 292° (WNW) 04:24:30 ?
AO-7 26 Oct 04:16:55 04:23:10 23° 95° (E) 04:29:22 29.400 - 29.500 MHz
Uosat F 26 Oct 04:25:02 04:27:08 13° 92° (E) 04:29:13 435.120 FM
Sapphire 26 Oct 04:34:03 04:39:14 46° 301° (WNW) 04:44:27 437.095 MHz 1200 baud AX-25 AFSK
Uribyol 2 26 Oct 04:55:07 04:57:48 14° 297° (WNW) 05:00:29 436.500 FM
PCSat 26 Oct 04:57:12 05:01:49 28° 305° (NW) 05:06:27 145.825 MHz
ITAMSAT 1 26 Oct 05:01:45 05:04:10 13° 297° (WNW) 05:06:34 435.822 SSB
OPAL 26 Oct 05:11:23 05:16:20 48° 71° (ENE) 05:21:13 ?
Gurwin Techsat 1B 26 Oct 05:29:41 05:32:23 14° 297° (WNW) 05:35:05 435.225 FM
TMSAT-1 26 Oct 05:39:44 05:42:43 15° 296° (WNW) 05:45:42 436.925 FM
JAS-2 26 Oct 05:49:15 05:56:13 34° 95° (E) 06:03:01 435.800 - 435.900 CW/SSB, 435.910 FM
Uosat F 26 Oct 06:01:17 06:06:15 61° 286° (WNW) 06:11:12 435.120 FM
AO-7 26 Oct 06:08:11 06:16:24 67° 291° (WNW) 06:24:38 29.400 - 29.500 MHz
RS-15 26 Oct 06:13:02 06:22:45 33° 44° (NE) 06:32:45 29.354 - 29.394 USB, Beacon 29.352 USB
Hamsat 26 Oct 06:15:52 06:19:16 24° 96° (E) 06:22:41 145.90 MHz
OPAL 26 Oct 06:52:05 06:55:23 17° 264° (W) 06:58:40 ?
PANSAT 26 Oct 06:53:18 06:56:05 19° 165° (SSE) 06:58:52 not established
STRAND 1 26 Oct 06:58:07 07:03:06 54° 73° (ENE) 07:08:07 ?
Saudisat 1A 26 Oct 06:59:22 07:03:25 38° 114° (ESE) 07:07:29 436.775 MHz
JAS-2 26 Oct 07:33:50 07:41:13 47° 290° (WNW) 07:48:30 435.800 - 435.900 CW/SSB, 435.910 FM
AO-40 26 Oct 07:35:50 23:50:58 49° 183° (S) 08:36:11 Beacon 2401.320
Hamsat 26 Oct 07:51:46 07:55:05 23° 289° (WNW) 07:58:25 145.90 MHz
SO-67 26 Oct 08:01:24 08:04:46 50° 99° (E) 08:08:07 435.3500 MHz FM
AO-7 26 Oct 08:04:31 08:07:38 13° 309° (NW) 08:10:46 29.400 - 29.500 MHz
RS-15 26 Oct 08:24:52 08:36:03 73° 246° (WSW) 08:47:45 29.354 - 29.394 USB, Beacon 29.352 USB
PANSAT 26 Oct 08:32:24 08:35:47 30° 178° (S) 08:39:09 not established
STRAND 1 26 Oct 08:39:46 08:42:34 15° 267° (W) 08:45:23 ?
Saudisat 1A 26 Oct 08:39:53 08:43:05 20° 310° (NW) 08:46:19 436.775 MHz
HO-68 26 Oct 09:04:48 09:10:13 23° 95° (E) 09:15:35 435.675 MHz FM
Oscar 10/S400 26 Oct 09:22:43 00:19:33 44° 222° (SW) 10:12:32 145.825 - 145.975 CW/USB, Beacon 145.810 USB
MaSat-1 26 Oct 09:34:01 09:36:30 58° 67° (ENE) 09:38:49 437.345 MHz
Oscar 11 26 Oct 10:12:17 10:15:47 24° 96° (E) 10:19:17 145.825 FM, Beacon 2401.500 USB
PANSAT 26 Oct 10:12:22 10:15:31 24° 190° (S) 10:18:39 not established
RS-15 26 Oct 10:42:12 10:46:32 13° 262° (W) 10:50:56 29.354 - 29.394 USB, Beacon 29.352 USB
HO-68 26 Oct 10:51:12 10:58:14 59° 290° (WNW) 11:05:14 435.675 MHz FM
ISS 26 Oct 11:04:44 11:06:35 14° 127° (SE) 11:08:25 145.800 FM
ZACube-1 26 Oct 11:05:54 11:09:53 40° 98° (E) 11:13:48 437.345 MHz
UKube-1 26 Oct 11:07:39 11:12:00 68° 285° (WNW) 11:16:18 145.840 MHz, 145.915 MHz
KITSAT 1 26 Oct 11:08:34 11:15:15 30° 106° (ESE) 11:21:57 435.175 FM
Oscar 11 26 Oct 11:48:24 11:51:50 24° 290° (WNW) 11:55:17 145.825 FM, Beacon 2401.500 USB
FUNcube-1 26 Oct 11:50:08 11:54:16 55° 285° (WNW) 11:58:19 145.950 - 145.970 MHz USB
PANSAT 26 Oct 11:54:11 11:55:04 11° 202° (SSW) 11:55:58 not established
PCSat 26 Oct 12:05:31 12:08:51 16° 49° (NE) 12:12:10 145.825 MHz
Oscar 16 26 Oct 12:31:08 12:31:57 10° 62° (ENE) 12:32:47 437.025 USB, Beacon 2401.1428
ISS 26 Oct 12:39:46 12:42:58 44° 321° (NW) 12:46:10 145.800 FM
ZACube-1 26 Oct 12:43:44 12:45:53 14° 293° (WNW) 12:48:02 437.345 MHz
JAS-1B 26 Oct 12:51:28 12:55:01 17° 64° (ENE) 12:58:30 435.800 - 435.900 CW/SSB
SO-50 26 Oct 12:56:27 13:00:54 77° 300° (WNW) 13:05:31 436.795 FM
